| time (UTC) | temp F | wind direction | speed MPH | gust MPH | rain 1hr in | rain 24hr in | rain mn in | humidity % | barometer mb |
| 20260506034008 | 67 | 0 | 2.0 | 4.0 | 0.00 | 0.04 | 0.04 | 52 | 1008.4 |
| 20260506033508 | 67 | 0 | 2.0 | 4.0 | 0.00 | 0.04 | 0.04 | 52 | 1008.5 |
| 20260506033007 | 67 | 0 | 2.0 | 6.0 | 0.00 | 0.04 | 0.04 | 51 | 1008.4 |
| 20260506032502 | 67 | 0 | 2.0 | 6.0 | 0.00 | 0.04 | 0.04 | 51 | 1008.4 |
| 20260506031959 | 67 | 187 | 2.0 | 5.0 | 0.00 | 0.04 | 0.04 | 52 | 1008.5 |
| 20260506031458 | 67 | 0 | 2.0 | 5.0 | 0.00 | 0.04 | 0.04 | 52 | 1008.5 |
| 20260506030956 | 67 | 0 | 2.0 | 6.0 | 0.00 | 0.04 | 0.04 | 51 | 1008.4 |
| 20260506030456 | 67 | 203 | 3.0 | 6.0 | 0.00 | 0.04 | 0.04 | 51 | 1008.4 |
| 20260506025953 | 67 | 0 | 3.0 | 5.0 | 0.00 | 0.04 | 0.04 | 51 | 1008.3 |
| 20260506025453 | 67 | 0 | 2.0 | 5.0 | 0.00 | 0.04 | 0.04 | 51 | 1008.4 |
| 20260506024953 | 67 | 0 | 2.0 | 4.0 | 0.00 | 0.04 | 0.04 | 52 | 1008.6 |
| 20260506024722 | 67 | 0 | 3.0 | 6.0 | 0.00 | 0.04 | 0.04 | 52 | 1008.6 |
| 20260506023950 | 66 | 0 | 3.0 | 9.0 | 0.00 | 0.04 | 0.04 | 52 | 1008.7 |
| 20260506023449 | 66 | 0 | 3.0 | 11.0 | 0.00 | 0.04 | 0.04 | 53 | 1008.8 |
| 20260506022948 | 66 | 0 | 2.0 | 4.0 | 0.00 | 0.04 | 0.04 | 54 | 1008.9 |
| 20260506022942 | 66 | 221 | 3.0 | 11.0 | 0.00 | 0.04 | 0.04 | 53 | 1009.0 |
| 20260506021943 | 66 | 0 | 1.0 | 4.0 | 0.00 | 0.04 | 0.04 | 54 | 1008.8 |
| 20260506021444 | 66 | 0 | 1.0 | 3.0 | 0.00 | 0.04 | 0.04 | 54 | 1008.9 |
| 20260506020942 | 67 | 0 | 1.0 | 3.0 | 0.00 | 0.04 | 0.04 | 56 | 1008.7 |
| 20260506020440 | 67 | 0 | 0.0 | 3.0 | 0.00 | 0.04 | 0.04 | 54 | 1008.8 |
| 20260506015944 | 67 | 0 | 0.0 | 0.0 | 0.00 | 0.04 | 0.04 | 54 | 1008.7 |
| 20260506015939 | 67 | 0 | 0.0 | 0.0 | 0.00 | 0.04 | 0.04 | 53 | 1008.8 |
| 20260506014940 | 67 | 213 | 0.0 | 0.0 | 0.00 | 0.04 | 0.04 | 52 | 1008.7 |
| 20260506014436 | 67 | 0 | 0.0 | 2.0 | 0.00 | 0.04 | 0.04 | 52 | 1008.6 |
| 20260506013936 | 67 | 213 | 1.0 | 3.0 | 0.00 | 0.04 | 0.04 | 52 | 1008.7 |
| 20260506013436 | 67 | 0 | 1.0 | 3.0 | 0.00 | 0.04 | 0.04 | 52 | 1008.7 |
| 20260506012937 | 67 | 0 | 1.0 | 2.0 | 0.00 | 0.04 | 0.04 | 52 | 1008.6 |
| 20260506012436 | 68 | 0 | 1.0 | 3.0 | 0.00 | 0.04 | 0.04 | 51 | 1008.7 |
| 20260506012206 | 68 | 213 | 1.0 | 3.0 | 0.00 | 0.04 | 0.04 | 51 | 1008.6 |
| 20260506011436 | 68 | 213 | 1.0 | 3.0 | 0.00 | 0.04 | 0.04 | 50 | 1008.7 |
| 20260506010937 | 69 | 0 | 1.0 | 3.0 | 0.00 | 0.04 | 0.04 | 50 | 1008.8 |
| 20260506010436 | 69 | 0 | 1.0 | 3.0 | 0.00 | 0.04 | 0.04 | 49 | 1008.7 |
| 20260506005936 | 69 | 0 | 0.0 | 3.0 | 0.00 | 0.04 | 0.04 | 49 | 1008.8 |
| 20260506005435 | 69 | 0 | 0.0 | 2.0 | 0.00 | 0.04 | 0.04 | 48 | 1008.8 |
| 20260506004931 | 69 | 0 | 1.0 | 2.0 | 0.00 | 0.04 | 0.04 | 47 | 1008.8 |
| 20260506004433 | 70 | 213 | 1.0 | 3.0 | 0.00 | 0.04 | 0.04 | 47 | 1008.8 |
| 20260506004204 | 70 | 0 | 2.0 | 3.0 | 0.00 | 0.04 | 0.04 | 47 | 1008.9 |
| 20260506003430 | 70 | 0 | 2.0 | 4.0 | 0.00 | 0.04 | 0.04 | 47 | 1008.8 |
| 20260506003158 | 70 | 0 | 2.0 | 4.0 | 0.00 | 0.04 | 0.04 | 47 | 1008.9 |
| 20260506002428 | 70 | 0 | 2.0 | 4.0 | 0.00 | 0.04 | 0.04 | 46 | 1008.9 |
| 20260506001925 | 70 | 0 | 1.0 | 4.0 | 0.00 | 0.04 | 0.04 | 46 | 1008.9 |
| 20260506001425 | 70 | 0 | 1.0 | 3.0 | 0.00 | 0.04 | 0.04 | 45 | 1008.8 |
| 20260506000923 | 71 | 0 | 2.0 | 4.0 | 0.00 | 0.04 | 0.04 | 45 | 1008.9 |
| 20260506000654 | 71 | 0 | 2.0 | 4.0 | 0.00 | 0.04 | 0.04 | 45 | 1008.8 |
| 20260505235920 | 71 | 0 | 2.0 | 4.0 | 0.00 | 0.04 | 0.04 | 44 | 1008.9 |
| 20260505235422 | 71 | 219 | 3.0 | 8.0 | 0.00 | 0.04 | 0.04 | 45 | 1008.8 |
| 20260505234921 | 71 | 0 | 3.0 | 8.0 | 0.00 | 0.04 | 0.04 | 44 | 1008.8 |
| 20260505234420 | 72 | 0 | 2.0 | 4.0 | 0.00 | 0.04 | 0.04 | 43 | 1009.0 |
| 20260505233921 | 72 | 213 | 3.0 | 8.0 | 0.00 | 0.04 | 0.04 | 43 | 1008.8 |
| 20260505233420 | 72 | 0 | 3.0 | 8.0 | 0.00 | 0.04 | 0.04 | 43 | 1008.9 |
| 20260505232918 | 72 | 207 | 2.0 | 5.0 | 0.00 | 0.04 | 0.04 | 43 | 1008.9 |
| 20260505232418 | 72 | 0 | 3.0 | 6.0 | 0.00 | 0.04 | 0.04 | 43 | 1008.8 |
| 20260505231917 | 72 | 0 | 4.0 | 11.0 | 0.00 | 0.04 | 0.04 | 43 | 1008.9 |
| 20260505231415 | 73 | 0 | 5.0 | 11.0 | 0.00 | 0.04 | 0.04 | 42 | 1008.9 |
| 20260505230920 | 73 | 0 | 4.0 | 10.0 | 0.00 | 0.04 | 0.04 | 42 | 1009.0 |
| 20260505230916 | 73 | 0 | 5.0 | 10.0 | 0.00 | 0.04 | 0.04 | 42 | 1009.0 |
| 20260505225913 | 73 | 0 | 4.0 | 9.0 | 0.00 | 0.04 | 0.04 | 43 | 1009.0 |
| 20260505225413 | 73 | 0 | 5.0 | 14.0 | 0.00 | 0.04 | 0.04 | 42 | 1009.1 |
| 20260505224913 | 73 | 0 | 6.0 | 14.0 | 0.00 | 0.04 | 0.04 | 42 | 1009.1 |
| 20260505224409 | 73 | 153 | 6.0 | 17.0 | 0.00 | 0.04 | 0.04 | 43 | 1009.1 |
| 20260505223912 | 73 | 0 | 8.0 | 18.0 | 0.00 | 0.04 | 0.04 | 43 | 1009.0 |
| 20260505223408 | 73 | 0 | 8.0 | 18.0 | 0.00 | 0.04 | 0.04 | 43 | 1009.2 |
| 20260505222908 | 73 | 0 | 6.0 | 18.0 | 0.00 | 0.04 | 0.04 | 43 | 1009.2 |
| 20260505222408 | 74 | 0 | 6.0 | 17.0 | 0.00 | 0.04 | 0.04 | 44 | 1009.3 |
| 20260505221908 | 74 | 0 | 7.0 | 17.0 | 0.00 | 0.04 | 0.04 | 41 | 1009.2 |
| 20260505221408 | 74 | 0 | 6.0 | 17.0 | 0.00 | 0.04 | 0.04 | 42 | 1009.2 |
| 20260505220909 | 74 | 0 | 6.0 | 15.0 | 0.00 | 0.04 | 0.04 | 42 | 1009.3 |
| 20260505220407 | 74 | 244 | 8.0 | 22.0 | 0.00 | 0.04 | 0.04 | 42 | 1009.4 |
| 20260505215911 | 74 | 0 | 9.0 | 22.0 | 0.00 | 0.04 | 0.04 | 41 | 1009.5 |
| 20260505215406 | 74 | 0 | 9.0 | 17.0 | 0.00 | 0.04 | 0.04 | 42 | 1009.4 |
| 20260505215136 | 75 | 0 | 7.0 | 17.0 | 0.00 | 0.04 | 0.04 | 41 | 1009.6 |
| 20260505214406 | 75 | 0 | 6.0 | 18.0 | 0.00 | 0.04 | 0.04 | 41 | 1009.5 |
| 20260505213903 | 75 | 0 | 7.0 | 18.0 | 0.00 | 0.04 | 0.04 | 42 | 1009.5 |
| 20260505213403 | 75 | 0 | 5.0 | 13.0 | 0.00 | 0.04 | 0.04 | 42 | 1009.4 |
| 20260505212903 | 75 | 0 | 6.0 | 14.0 | 0.00 | 0.04 | 0.04 | 42 | 1009.4 |
| 20260505212638 | 75 | 346 | 7.0 | 18.0 | 0.00 | 0.04 | 0.04 | 41 | 1009.3 |
| 20260505212402 | 75 | 0 | 7.0 | 17.0 | 0.00 | 0.04 | 0.04 | 41 | 1009.4 |
| 20260505211400 | 75 | 0 | 9.0 | 18.0 | 0.00 | 0.04 | 0.04 | 42 | 1009.4 |
| 20260505211135 | 75 | 0 | 7.0 | 17.0 | 0.00 | 0.04 | 0.04 | 43 | 1009.3 |
| 20260505210358 | 75 | 0 | 6.0 | 16.0 | 0.00 | 0.04 | 0.04 | 44 | 1009.3 |
| 20260505205856 | 75 | 0 | 7.0 | 16.0 | 0.00 | 0.04 | 0.04 | 43 | 1009.3 |
| 20260505205357 | 75 | 0 | 7.0 | 19.0 | 0.00 | 0.04 | 0.04 | 43 | 1009.3 |
| 20260505204855 | 75 | 0 | 8.0 | 19.0 | 0.00 | 0.04 | 0.04 | 44 | 1009.3 |
| 20260505204356 | 75 | 0 | 7.0 | 15.0 | 0.00 | 0.04 | 0.04 | 44 | 1009.3 |
| 20260505203854 | 75 | 0 | 7.0 | 17.0 | 0.00 | 0.04 | 0.04 | 43 | 1009.3 |
| 20260505203351 | 75 | 0 | 9.0 | 20.0 | 0.00 | 0.04 | 0.04 | 43 | 1009.4 |
| 20260505202850 | 75 | 227 | 10.0 | 20.0 | 0.00 | 0.04 | 0.04 | 43 | 1009.3 |
| 20260505202352 | 75 | 0 | 9.0 | 20.0 | 0.00 | 0.04 | 0.04 | 42 | 1009.4 |
| 20260505201851 | 75 | 0 | 9.0 | 18.0 | 0.00 | 0.04 | 0.04 | 44 | 1009.3 |
| 20260505201350 | 75 | 0 | 9.0 | 18.0 | 0.00 | 0.04 | 0.04 | 44 | 1009.4 |
| 20260505200849 | 75 | 0 | 8.0 | 17.0 | 0.00 | 0.04 | 0.04 | 43 | 1009.4 |
| 20260505200347 | 76 | 0 | 9.0 | 16.0 | 0.00 | 0.04 | 0.04 | 43 | 1009.3 |
| 20260505200118 | 76 | 0 | 11.0 | 21.0 | 0.00 | 0.04 | 0.04 | 44 | 1009.4 |
| 20260505195347 | 76 | 0 | 9.0 | 21.0 | 0.00 | 0.04 | 0.04 | 43 | 1009.4 |
| 20260505194844 | 76 | 0 | 8.0 | 20.0 | 0.00 | 0.04 | 0.04 | 44 | 1009.3 |
| 20260505194344 | 76 | 229 | 11.0 | 21.0 | 0.00 | 0.04 | 0.04 | 42 | 1009.5 |
| 20260505194112 | 76 | 0 | 11.0 | 22.0 | 0.00 | 0.04 | 0.04 | 42 | 1009.5 |
| 20260505193340 | 77 | 0 | 9.0 | 23.0 | 0.00 | 0.04 | 0.04 | 43 | 1009.4 |
| 20260505192836 | 77 | 0 | 11.0 | 23.0 | 0.00 | 0.04 | 0.04 | 41 | 1009.3 |
| 20260505192335 | 77 | 0 | 13.0 | 27.0 | 0.00 | 0.04 | 0.04 | 42 | 1009.5 |
| 20260505191834 | 77 | 0 | 13.0 | 27.0 | 0.00 | 0.04 | 0.04 | 43 | 1009.4 |
| 20260505191334 | 77 | 0 | 10.0 | 21.0 | 0.00 | 0.04 | 0.04 | 42 | 1009.4 |
| 20260505190835 | 77 | 0 | 10.0 | 23.0 | 0.00 | 0.04 | 0.04 | 42 | 1009.5 |
| 20260505190334 | 77 | 0 | 11.0 | 23.0 | 0.00 | 0.04 | 0.04 | 42 | 1009.4 |
| 20260505185832 | 77 | 0 | 12.0 | 23.0 | 0.00 | 0.04 | 0.04 | 41 | 1009.4 |
| 20260505185334 | 77 | 0 | 11.0 | 20.0 | 0.00 | 0.04 | 0.04 | 43 | 1009.4 |
| 20260505185107 | 77 | 67 | 11.0 | 19.0 | 0.00 | 0.04 | 0.04 | 41 | 1009.6 |
| 20260505184334 | 78 | 0 | 9.0 | 18.0 | 0.00 | 0.04 | 0.04 | 41 | 1009.7 |
| 20260505183831 | 78 | 0 | 9.0 | 18.0 | 0.00 | 0.04 | 0.04 | 41 | 1009.6 |
| 20260505183332 | 77 | 0 | 11.0 | 23.0 | 0.00 | 0.04 | 0.04 | 43 | 1009.7 |
| 20260505182829 | 77 | 0 | 13.0 | 23.0 | 0.00 | 0.04 | 0.04 | 41 | 1009.6 |
| 20260505182329 | 78 | 0 | 12.0 | 23.0 | 0.00 | 0.04 | 0.04 | 43 | 1009.7 |
| 20260505181826 | 78 | 0 | 12.0 | 24.0 | 0.00 | 0.04 | 0.04 | 43 | 1009.8 |
| 20260505181326 | 77 | 0 | 13.0 | 28.0 | 0.00 | 0.04 | 0.04 | 43 | 1009.6 |
| 20260505180826 | 77 | 0 | 14.0 | 28.0 | 0.00 | 0.04 | 0.04 | 43 | 1009.6 |
| 20260505180325 | 77 | 0 | 14.0 | 26.0 | 0.00 | 0.04 | 0.04 | 43 | 1009.6 |
| 20260505175826 | 76 | 0 | 12.0 | 25.0 | 0.00 | 0.04 | 0.04 | 43 | 1009.7 |
| 20260505175324 | 77 | 0 | 10.0 | 19.0 | 0.00 | 0.04 | 0.04 | 43 | 1009.6 |
| 20260505174824 | 77 | 0 | 12.0 | 27.0 | 0.00 | 0.04 | 0.04 | 46 | 1009.6 |
| 20260505174322 | 77 | 0 | 15.0 | 27.0 | 0.00 | 0.04 | 0.04 | 43 | 1009.6 |
| 20260505173823 | 77 | 0 | 13.0 | 26.0 | 0.00 | 0.04 | 0.04 | 41 | 1009.7 |
| 20260505173324 | 77 | 0 | 9.0 | 23.0 | 0.00 | 0.04 | 0.04 | 44 | 1009.8 |
| 20260505172821 | 77 | 290 | 10.0 | 22.0 | 0.00 | 0.04 | 0.04 | 42 | 1009.8 |
| 20260505172552 | 77 | 251 | 12.0 | 22.0 | 0.00 | 0.04 | 0.04 | 43 | 1009.6 |
| 20260505171818 | 76 | 0 | 13.0 | 25.0 | 0.00 | 0.04 | 0.04 | 43 | 1009.8 |
| 20260505171321 | 76 | 0 | 11.0 | 22.0 | 0.00 | 0.04 | 0.04 | 43 | 1009.8 |
| 20260505171316 | 76 | 0 | 12.0 | 25.0 | 0.00 | 0.04 | 0.04 | 43 | 1009.8 |
| 20260505170547 | 76 | 0 | 12.0 | 25.0 | 0.00 | 0.04 | 0.04 | 42 | 1009.8 |
| 20260505170049 | 76 | 0 | 12.0 | 26.0 | 0.00 | 0.04 | 0.04 | 42 | 1009.8 |
| 20260505165546 | 76 | 0 | 13.0 | 26.0 | 0.00 | 0.04 | 0.04 | 44 | 1009.9 |
| 20260505164814 | 76 | 0 | 13.0 | 24.0 | 0.00 | 0.04 | 0.04 | 45 | 1009.9 |
| 20260505164314 | 76 | 0 | 12.0 | 23.0 | 0.00 | 0.04 | 0.04 | 45 | 1009.9 |
| 20260505164048 | 76 | 0 | 11.0 | 26.0 | 0.00 | 0.04 | 0.04 | 45 | 1009.9 |
| 20260505163312 | 76 | 0 | 12.0 | 26.0 | 0.00 | 0.04 | 0.04 | 46 | 1010.0 |
| 20260505162812 | 75 | 0 | 13.0 | 24.0 | 0.00 | 0.04 | 0.04 | 46 | 1010.3 |
| 20260505162312 | 75 | 0 | 12.0 | 25.0 | 0.00 | 0.04 | 0.04 | 45 | 1010.1 |
| 20260505161812 | 75 | 126 | 12.0 | 25.0 | 0.00 | 0.04 | 0.04 | 46 | 1010.1 |
| 20260505161310 | 75 | 0 | 13.0 | 25.0 | 0.00 | 0.04 | 0.04 | 45 | 1010.0 |
| 20260505160811 | 75 | 288 | 13.0 | 25.0 | 0.00 | 0.04 | 0.04 | 43 | 1010.3 |
| 20260505160541 | 75 | 0 | 11.0 | 24.0 | 0.00 | 0.04 | 0.04 | 46 | 1010.2 |
| 20260505152805 | 74 | 0 | 12.0 | 23.0 | 0.00 | 0.04 | 0.04 | 46 | 1010.4 |
| 20260505152305 | 74 | 0 | 10.0 | 20.0 | 0.00 | 0.04 | 0.04 | 46 | 1010.5 |
| 20260505151805 | 74 | 0 | 10.0 | 21.0 | 0.00 | 0.04 | 0.04 | 49 | 1010.3 |
| 20260505151305 | 73 | 0 | 11.0 | 22.0 | 0.00 | 0.04 | 0.04 | 47 | 1010.2 |
| 20260505150805 | 73 | 0 | 13.0 | 24.0 | 0.00 | 0.04 | 0.04 | 47 | 1010.3 |
| 20260505150535 | 73 | 0 | 12.0 | 24.0 | 0.00 | 0.04 | 0.04 | 47 | 1010.5 |
| 20260505140259 | 70 | 0 | 8.0 | 20.0 | 0.00 | 0.04 | 0.04 | 51 | 1010.9 |
| 20260505130248 | 69 | 0 | 8.0 | 17.0 | 0.00 | 0.04 | 0.04 | 52 | 1010.6 |
| 20260505124746 | 68 | 0 | 10.0 | 20.0 | 0.00 | 0.04 | 0.04 | 53 | 1010.5 |
| 20260505124244 | 67 | 0 | 10.0 | 17.0 | 0.00 | 0.04 | 0.04 | 52 | 1010.4 |
| 20260505123744 | 67 | 0 | 9.0 | 16.0 | 0.00 | 0.04 | 0.04 | 53 | 1010.4 |
| 20260505123242 | 67 | 0 | 9.0 | 17.0 | 0.00 | 0.04 | 0.04 | 53 | 1010.4 |
| 20260505122741 | 67 | 0 | 9.0 | 18.0 | 0.00 | 0.04 | 0.04 | 54 | 1010.6 |
| 20260505122244 | 67 | 0 | 8.0 | 20.0 | 0.00 | 0.04 | 0.04 | 53 | 1010.6 |
| 20260505122239 | 67 | 0 | 10.0 | 20.0 | 0.00 | 0.04 | 0.04 | 53 | 1010.6 |
| 20260505121236 | 67 | 0 | 7.0 | 15.0 | 0.00 | 0.04 | 0.04 | 53 | 1010.6 |
| 20260505120737 | 66 | 202 | 8.0 | 15.0 | 0.00 | 0.04 | 0.04 | 55 | 1010.5 |
| 20260505120239 | 66 | 0 | 8.0 | 15.0 | 0.00 | 0.04 | 0.04 | 55 | 1010.6 |
| 20260505120009 | 65 | 0 | 8.0 | 18.0 | 0.00 | 0.04 | 0.04 | 55 | 1010.6 |
| 20260505115508 | 65 | 186 | 8.0 | 18.0 | 0.00 | 0.04 | 0.04 | 55 | 1010.5 |
| 20260505114736 | 65 | 0 | 8.0 | 14.0 | 0.00 | 0.04 | 0.04 | 56 | 1010.4 |
| 20260505114507 | 65 | 0 | 7.0 | 14.0 | 0.00 | 0.04 | 0.04 | 56 | 1010.4 |
| 20260505114007 | 64 | 169 | 7.0 | 13.0 | 0.00 | 0.04 | 0.04 | 56 | 1010.5 |
| 20260505113235 | 64 | 0 | 7.0 | 13.0 | 0.00 | 0.04 | 0.04 | 56 | 1010.7 |
| 20260505112735 | 64 | 0 | 7.0 | 13.0 | 0.00 | 0.04 | 0.04 | 57 | 1010.6 |
| 20260505112235 | 64 | 0 | 7.0 | 12.0 | 0.00 | 0.04 | 0.04 | 56 | 1010.5 |
| 20260505111735 | 64 | 0 | 7.0 | 12.0 | 0.00 | 0.04 | 0.04 | 57 | 1010.5 |
| 20260505111236 | 64 | 0 | 5.0 | 12.0 | 0.00 | 0.04 | 0.04 | 57 | 1010.5 |
| 20260505110738 | 64 | 202 | 5.0 | 12.0 | 0.00 | 0.04 | 0.04 | 57 | 1010.5 |
| 20260505110234 | 63 | 0 | 6.0 | 12.0 | 0.00 | 0.04 | 0.04 | 57 | 1010.4 |
| 20260505101732 | 63 | 0 | 6.0 | 13.0 | 0.00 | 0.04 | 0.04 | 57 | 1009.7 |
| 20260505101224 | 63 | 0 | 7.0 | 12.0 | 0.00 | 0.04 | 0.04 | 57 | 1009.6 |
| 20260505100724 | 62 | 0 | 7.0 | 12.0 | 0.00 | 0.04 | 0.04 | 58 | 1009.6 |
| 20260505100224 | 62 | 0 | 6.0 | 10.0 | 0.00 | 0.04 | 0.04 | 58 | 1009.4 |
| 20260505095725 | 62 | 0 | 5.0 | 10.0 | 0.00 | 0.04 | 0.04 | 59 | 1009.5 |
| 20260505095223 | 62 | 0 | 4.0 | 9.0 | 0.00 | 0.04 | 0.04 | 60 | 1009.3 |
| 20260505094722 | 61 | 0 | 4.0 | 9.0 | 0.00 | 0.04 | 0.04 | 60 | 1009.2 |
| 20260505094218 | 61 | 181 | 4.0 | 10.0 | 0.00 | 0.04 | 0.04 | 61 | 1009.2 |
| 20260505093718 | 60 | 0 | 4.0 | 10.0 | 0.00 | 0.04 | 0.04 | 62 | 1009.3 |
| 20260505093219 | 60 | 0 | 4.0 | 9.0 | 0.00 | 0.04 | 0.04 | 63 | 1009.2 |
| 20260505092716 | 60 | 0 | 3.0 | 9.0 | 0.00 | 0.04 | 0.04 | 64 | 1009.1 |
| 20260505092216 | 59 | 0 | 3.0 | 6.0 | 0.00 | 0.04 | 0.04 | 65 | 1009.0 |
| 20260505091716 | 59 | 0 | 3.0 | 6.0 | 0.00 | 0.04 | 0.04 | 65 | 1008.9 |
| 20260505091212 | 60 | 0 | 2.0 | 5.0 | 0.00 | 0.04 | 0.04 | 66 | 1009.0 |
| 20260505090711 | 60 | 192 | 1.0 | 4.0 | 0.00 | 0.04 | 0.04 | 65 | 1009.0 |
| 20260505090212 | 61 | 0 | 0.0 | 2.0 | 0.00 | 0.04 | 0.04 | 64 | 1008.8 |
| 20260505085713 | 61 | 261 | 0.0 | 0.0 | 0.00 | 0.04 | 0.04 | 63 | 1009.0 |
| 20260505085210 | 62 | 261 | 0.0 | 1.0 | 0.00 | 0.04 | 0.04 | 63 | 1008.8 |
| 20260505084713 | 62 | 261 | 1.0 | 2.0 | 0.00 | 0.04 | 0.04 | 62 | 1009.0 |
| 20260505084436 | 62 | 0 | 1.0 | 2.0 | 0.00 | 0.04 | 0.04 | 62 | 1008.8 |
| 20260505083702 | 62 | 0 | 0.0 | 2.0 | 0.00 | 0.04 | 0.04 | 60 | 1008.9 |
| 20260505083200 | 62 | 262 | 1.0 | 4.0 | 0.00 | 0.04 | 0.04 | 60 | 1008.9 |
| 20260505082658 | 63 | 261 | 1.0 | 4.0 | 0.00 | 0.04 | 0.04 | 60 | 1009.1 |
| 20260505082200 | 63 | 333 | 1.0 | 3.0 | 0.00 | 0.04 | 0.04 | 60 | 1009.1 |
| 20260505081924 | 63 | 332 | 1.0 | 4.0 | 0.00 | 0.04 | 0.04 | 60 | 1009.0 |
| 20260505081423 | 63 | 320 | 2.0 | 4.0 | 0.00 | 0.04 | 0.04 | 59 | 1009.1 |
| 20260505080924 | 63 | 311 | 3.0 | 10.0 | 0.00 | 0.04 | 0.04 | 59 | 1009.2 |
| 20260505080152 | 63 | 294 | 5.0 | 11.0 | 0.00 | 0.04 | 0.04 | 59 | 1009.1 |
| 20260505075652 | 64 | 0 | 4.0 | 11.0 | 0.00 | 0.04 | 0.04 | 59 | 1009.1 |
| 20260505075152 | 64 | 0 | 4.0 | 11.0 | 0.00 | 0.04 | 0.04 | 58 | 1009.0 |
| 20260505074924 | 64 | 0 | 7.0 | 14.0 | 0.00 | 0.04 | 0.04 | 58 | 1008.7 |
| 20260505074148 | 64 | 0 | 8.0 | 14.0 | 0.00 | 0.04 | 0.04 | 58 | 1008.6 |
| 20260505073648 | 63 | 0 | 7.0 | 16.0 | 0.00 | 0.04 | 0.04 | 57 | 1008.7 |
| 20260505073146 | 63 | 0 | 6.0 | 16.0 | 0.00 | 0.04 | 0.04 | 57 | 1008.6 |
| 20260505072646 | 63 | 0 | 6.0 | 12.0 | 0.00 | 0.04 | 0.04 | 58 | 1008.5 |
| 20260505072146 | 63 | 0 | 5.0 | 12.0 | 0.00 | 0.04 | 0.04 | 58 | 1008.6 |
| 20260505071643 | 63 | 0 | 5.0 | 13.0 | 0.00 | 0.04 | 0.04 | 58 | 1008.6 |
| 20260505071142 | 62 | 0 | 5.0 | 13.0 | 0.00 | 0.04 | 0.04 | 59 | 1008.6 |
| 20260505070641 | 62 | 0 | 4.0 | 9.0 | 0.00 | 0.04 | 0.04 | 59 | 1008.5 |
| 20260505070142 | 62 | 0 | 4.0 | 11.0 | 0.00 | 0.04 | 0.04 | 59 | 1008.6 |
| 20260505065640 | 62 | 0 | 5.0 | 11.0 | 0.00 | 0.04 | 0.04 | 60 | 1008.4 |
| 20260505065413 | 62 | 0 | 4.0 | 10.0 | 0.00 | 0.04 | 0.04 | 61 | 1008.5 |
| 20260505064635 | 62 | 0 | 3.0 | 8.0 | 0.00 | 0.04 | 0.04 | 61 | 1008.4 |
| 20260505064405 | 62 | 0 | 3.0 | 6.0 | 0.01 | 0.04 | 0.04 | 62 | 1008.4 |
| 20260505063635 | 61 | 0 | 4.0 | 8.0 | 0.01 | 0.04 | 0.04 | 62 | 1008.5 |
| 20260505063136 | 61 | 0 | 3.0 | 8.0 | 0.02 | 0.04 | 0.04 | 63 | 1008.4 |
| 20260505062634 | 61 | 0 | 3.0 | 8.0 | 0.04 | 0.04 | 0.04 | 64 | 1008.5 |
| 20260505062134 | 61 | 0 | 2.0 | 8.0 | 0.04 | 0.04 | 0.04 | 64 | 1008.5 |
| 20260505061627 | 61 | 0 | 3.0 | 10.0 | 0.04 | 0.04 | 0.04 | 64 | 1008.6 |
| 20260505061127 | 61 | 0 | 3.0 | 10.0 | 0.04 | 0.04 | 0.04 | 64 | 1008.5 |
| 20260505060629 | 61 | 0 | 3.0 | 8.0 | 0.04 | 0.04 | 0.04 | 64 | 1008.6 |
| 20260505060128 | 62 | 0 | 3.0 | 6.0 | 0.04 | 0.04 | 0.04 | 64 | 1008.7 |
| 20260505055627 | 62 | 0 | 3.0 | 6.0 | 0.04 | 0.04 | 0.04 | 64 | 1008.9 |
| 20260505055400 | 62 | 0 | 3.0 | 6.0 | 0.04 | 0.04 | 0.04 | 64 | 1008.8 |
| 20260505054854 | 63 | 0 | 3.0 | 8.0 | 0.04 | 0.04 | 0.04 | 64 | 1008.8 |
| 20260505054121 | 63 | 0 | 3.0 | 8.0 | 0.03 | 0.03 | 0.04 | 62 | 1008.9 |
| 20260505053621 | 64 | 0 | 3.0 | 8.0 | 0.03 | 0.03 | 0.03 | 61 | 1009.0 |
| 20260505053120 | 64 | 0 | 3.0 | 8.0 | 0.02 | 0.02 | 0.02 | 60 | 1009.0 |
| 20260505052618 | 64 | 0 | 4.0 | 9.0 | 0.00 | 0.00 | 0.00 | 56 | 1008.8 |
| 20260505052118 | 64 | 0 | 5.0 | 9.0 | 0.00 | 0.00 | 0.00 | 56 | 1008.8 |
| 20260505051843 | 64 | 0 | 5.0 | 9.0 | 0.00 | 0.00 | 0.00 | 55 | 1008.8 |
| 20260505051114 | 64 | 0 | 4.0 | 12.0 | 0.00 | 0.00 | 0.00 | 56 | 1008.8 |
| 20260505050612 | 64 | 0 | 4.0 | 12.0 | 0.00 | 0.00 | 0.00 | 56 | 1008.7 |
| 20260505050110 | 64 | 0 | 4.0 | 10.0 | 0.00 | 0.00 | 0.00 | 56 | 1008.8 |
| 20260505041608 | 63 | 0 | 2.0 | 8.0 | 0.00 | 0.00 | 0.00 | 57 | 1008.6 |
| 20260505041103 | 63 | 0 | 2.0 | 5.0 | 0.00 | 0.00 | 0.00 | 57 | 1008.6 |
| 20260505040602 | 63 | 0 | 2.0 | 5.0 | 0.00 | 0.00 | 0.00 | 57 | 1008.6 |
| 20260505040334 | 63 | 0 | 2.0 | 5.0 | 0.00 | 0.00 | 0.00 | 57 | 1008.7 |
| 20260505035832 | 64 | 0 | 2.0 | 4.0 | 0.00 | 0.00 | 0.00 | 57 | 1008.7 |
| 20260505035102 | 64 | 0 | 1.0 | 3.0 | 0.00 | 0.00 | 0.00 | 57 | 1008.7 |
| 20260505034556 | 64 | 0 | 0.0 | 3.0 | 0.00 | 0.00 | 0.00 | 57 | 1008.7 |